Back to catalog

STARLINK-33547

AliveCommunicationsVLEO
NORAD 62283·PAYLOAD·🇺🇸 United States

Launched Dec 8, 2024 from Cape Canaveral Space Force Station

Loading…

Next Passes (next 24 hours)

TLE

FreshSource: CelesTrak SupGP

Epoch: Sep 14, 2026, 14:00 UTC

1 62283C 24237S   26257.58381944 -.00026718  00000+0 -96791-3 0  2570
2 62283  43.0020 218.6770 0001451 268.4168 209.6084 15.27585126    11

Track STARLINK-33547 in real time with AllMySat

Download on the App Store